| time (UTC) | temp F | wind direction | speed MPH | gust MPH | rain 1hr in | rain 24hr in | rain mn in | humidity % | barometer mb |
| 20260508211132 | 72 | 267 | 5.0 | 7.0 | 0.00 | 0.00 | 0.00 | 22 | 1041.8 |
| 20260508210629 | 74 | 192 | 5.0 | 6.0 | 0.00 | 0.00 | 0.00 | 23 | 1041.7 |
| 20260508210126 | 72 | 297 | 2.0 | 6.0 | 0.00 | 0.00 | 0.00 | 23 | 1041.8 |
| 20260508205623 | 73 | 283 | 6.0 | 19.0 | 0.00 | 0.00 | 0.00 | 25 | 1041.8 |
| 20260508205119 | 71 | 279 | 6.0 | 13.0 | 0.00 | 0.00 | 0.00 | 22 | 1041.8 |
| 20260508204616 | 72 | 261 | 4.0 | 11.0 | 0.00 | 0.00 | 0.00 | 23 | 1041.9 |
| 20260508204112 | 73 | 240 | 2.0 | 6.0 | 0.00 | 0.00 | 0.00 | 24 | 1041.8 |
| 20260508203608 | 74 | 263 | 2.0 | 3.0 | 0.00 | 0.00 | 0.00 | 24 | 1041.9 |
| 20260508203104 | 74 | 284 | 2.0 | 9.0 | 0.00 | 0.00 | 0.00 | 24 | 1042.0 |
| 20260508202601 | 74 | 151 | 2.0 | 6.0 | 0.00 | 0.00 | 0.00 | 23 | 1042.2 |
| 20260508202058 | 74 | 285 | 4.0 | 10.0 | 0.00 | 0.00 | 0.00 | 24 | 1042.3 |
| 20260508201555 | 75 | 329 | 7.0 | 9.0 | 0.00 | 0.00 | 0.00 | 25 | 1042.5 |
| 20260508201051 | 74 | 245 | 6.0 | 7.0 | 0.00 | 0.00 | 0.00 | 24 | 1042.5 |
| 20260508200548 | 73 | 295 | 2.0 | 4.0 | 0.00 | 0.00 | 0.00 | 27 | 1042.4 |
| 20260508200044 | 72 | 273 | 4.0 | 7.0 | 0.00 | 0.00 | 0.00 | 25 | 1042.6 |
| 20260508195541 | 72 | 275 | 5.0 | 10.0 | 0.00 | 0.00 | 0.00 | 25 | 1042.7 |
| 20260508195037 | 70 | 299 | 4.0 | 4.0 | 0.00 | 0.00 | 0.00 | 25 | 1042.7 |
| 20260508194534 | 71 | 206 | 2.0 | 2.0 | 0.00 | 0.00 | 0.00 | 26 | 1042.7 |
| 20260508194032 | 72 | 219 | 9.0 | 10.0 | 0.00 | 0.00 | 0.00 | 22 | 1043.0 |
| 20260508193528 | 72 | 272 | 5.0 | 7.0 | 0.00 | 0.00 | 0.00 | 24 | 1043.2 |
| 20260508193025 | 73 | 256 | 5.0 | 7.0 | 0.00 | 0.00 | 0.00 | 23 | 1042.8 |
| 20260508192521 | 72 | 339 | 2.0 | 3.0 | 0.00 | 0.00 | 0.00 | 26 | 1043.0 |
| 20260508192019 | 71 | 240 | 2.0 | 10.0 | 0.00 | 0.00 | 0.00 | 26 | 1043.2 |
| 20260508191515 | 72 | 271 | 6.0 | 7.0 | 0.00 | 0.00 | 0.00 | 28 | 1043.4 |
| 20260508191012 | 71 | 229 | 1.0 | 6.0 | 0.00 | 0.00 | 0.00 | 26 | 1043.5 |
| 20260508190509 | 71 | 288 | 4.0 | 4.0 | 0.00 | 0.00 | 0.00 | 24 | 1043.6 |
| 20260508190005 | 70 | 315 | 3.0 | 9.0 | 0.00 | 0.00 | 0.00 | 26 | 1043.7 |
| 20260508185503 | 71 | 313 | 7.0 | 11.0 | 0.00 | 0.00 | 0.00 | 23 | 1043.5 |
| 20260508185000 | 70 | 202 | 6.0 | 11.0 | 0.00 | 0.00 | 0.00 | 24 | 1043.9 |
| 20260508184458 | 70 | 208 | 7.0 | 8.0 | 0.00 | 0.00 | 0.00 | 24 | 1043.6 |
| 20260508183954 | 70 | 294 | 2.0 | 14.0 | 0.00 | 0.00 | 0.00 | 26 | 1043.8 |
| 20260508183450 | 70 | 240 | 5.0 | 7.0 | 0.00 | 0.00 | 0.00 | 26 | 1043.8 |
| 20260508182946 | 70 | 292 | 4.0 | 7.0 | 0.00 | 0.00 | 0.00 | 26 | 1043.9 |
| 20260508182443 | 70 | 304 | 4.0 | 8.0 | 0.00 | 0.00 | 0.00 | 27 | 1044.1 |
| 20260508181943 | 70 | 192 | 4.0 | 10.0 | 0.00 | 0.00 | 0.00 | 25 | 1044.2 |
| 20260508181440 | 69 | 238 | 3.0 | 7.0 | 0.00 | 0.00 | 0.00 | 25 | 1044.2 |
| 20260508180938 | 70 | 305 | 4.0 | 7.0 | 0.00 | 0.00 | 0.00 | 25 | 1044.3 |
| 20260508180434 | 70 | 237 | 2.0 | 4.0 | 0.00 | 0.00 | 0.00 | 26 | 1044.3 |
| 20260508175930 | 69 | 271 | 1.0 | 8.0 | 0.00 | 0.00 | 0.00 | 26 | 1044.3 |
| 20260508175427 | 69 | 190 | 2.0 | 3.0 | 0.00 | 0.00 | 0.00 | 30 | 1044.6 |
| 20260508174925 | 69 | 285 | 5.0 | 10.0 | 0.00 | 0.00 | 0.00 | 25 | 1044.6 |
| 20260508174422 | 68 | 205 | 0.0 | 4.0 | 0.00 | 0.00 | 0.00 | 28 | 1044.6 |
| 20260508173919 | 68 | 226 | 6.0 | 10.0 | 0.00 | 0.00 | 0.00 | 25 | 1044.8 |
| 20260508173416 | 68 | 265 | 4.0 | 11.0 | 0.00 | 0.00 | 0.00 | 25 | 1045.0 |
| 20260508172912 | 68 | 301 | 5.0 | 7.0 | 0.00 | 0.00 | 0.00 | 24 | 1045.0 |
| 20260508172410 | 68 | 270 | 3.0 | 7.0 | 0.00 | 0.00 | 0.00 | 26 | 1045.1 |
| 20260508171905 | 68 | 216 | 5.0 | 8.0 | 0.00 | 0.00 | 0.00 | 24 | 1045.2 |
| 20260508171402 | 69 | 316 | 4.0 | 7.0 | 0.00 | 0.00 | 0.00 | 26 | 1045.3 |
| 20260508170858 | 68 | 308 | 4.0 | 4.0 | 0.00 | 0.00 | 0.00 | 27 | 1045.5 |
| 20260508170356 | 67 | 243 | 6.0 | 8.0 | 0.00 | 0.00 | 0.00 | 26 | 1045.6 |
| 20260508165852 | 67 | 248 | 2.0 | 6.0 | 0.00 | 0.00 | 0.00 | 26 | 1045.6 |
| 20260508165351 | 67 | 280 | 3.0 | 10.0 | 0.00 | 0.00 | 0.00 | 27 | 1045.6 |
| 20260508164846 | 67 | 200 | 3.0 | 6.0 | 0.00 | 0.00 | 0.00 | 26 | 1045.7 |
| 20260508164343 | 66 | 210 | 7.0 | 13.0 | 0.00 | 0.00 | 0.00 | 29 | 1045.8 |
| 20260508163841 | 66 | 248 | 2.0 | 3.0 | 0.00 | 0.00 | 0.00 | 27 | 1045.8 |
| 20260508163339 | 67 | 223 | 4.0 | 8.0 | 0.00 | 0.00 | 0.00 | 27 | 1045.9 |
| 20260508162834 | 66 | 206 | 3.0 | 4.0 | 0.00 | 0.00 | 0.00 | 28 | 1045.9 |
| 20260508162331 | 66 | 217 | 3.0 | 7.0 | 0.00 | 0.00 | 0.00 | 29 | 1046.0 |
| 20260508161828 | 66 | 222 | 6.0 | 7.0 | 0.00 | 0.00 | 0.00 | 27 | 1046.0 |
| 20260508161326 | 65 | 260 | 3.0 | 7.0 | 0.00 | 0.00 | 0.00 | 28 | 1046.2 |
| 20260508160823 | 65 | 195 | 5.0 | 8.0 | 0.00 | 0.00 | 0.00 | 30 | 1046.3 |
| 20260508160322 | 64 | 254 | 4.0 | 6.0 | 0.00 | 0.00 | 0.00 | 31 | 1046.4 |
| 20260508155817 | 64 | 209 | 3.0 | 6.0 | 0.00 | 0.00 | 0.00 | 32 | 1046.5 |
| 20260508155315 | 64 | 225 | 3.0 | 6.0 | 0.00 | 0.00 | 0.00 | 33 | 1046.3 |
| 20260508154811 | 63 | 308 | 2.0 | 7.0 | 0.00 | 0.00 | 0.00 | 31 | 1046.4 |
| 20260508154309 | 62 | 202 | 4.0 | 7.0 | 0.00 | 0.00 | 0.00 | 31 | 1046.7 |
| 20260508153805 | 63 | 212 | 6.0 | 8.0 | 0.00 | 0.00 | 0.00 | 32 | 1046.6 |
| 20260508153303 | 62 | 198 | 4.0 | 4.0 | 0.00 | 0.00 | 0.00 | 31 | 1046.8 |
| 20260508152759 | 62 | 215 | 4.0 | 6.0 | 0.00 | 0.00 | 0.00 | 35 | 1046.9 |
| 20260508152255 | 61 | 228 | 4.0 | 6.0 | 0.00 | 0.00 | 0.00 | 36 | 1047.0 |
| 20260508151751 | 60 | 239 | 4.0 | 7.0 | 0.00 | 0.00 | 0.00 | 34 | 1047.0 |
| 20260508151249 | 60 | 260 | 4.0 | 9.0 | 0.00 | 0.00 | 0.00 | 36 | 1047.1 |
| 20260508150745 | 60 | 197 | 5.0 | 7.0 | 0.00 | 0.00 | 0.00 | 35 | 1047.0 |
| 20260508150242 | 59 | 185 | 5.0 | 7.0 | 0.00 | 0.00 | 0.00 | 36 | 1047.2 |
| 20260508145738 | 59 | 227 | 5.0 | 6.0 | 0.00 | 0.00 | 0.00 | 34 | 1047.1 |
| 20260508145234 | 59 | 212 | 5.0 | 7.0 | 0.00 | 0.00 | 0.00 | 34 | 1047.0 |
| 20260508144731 | 59 | 240 | 5.0 | 9.0 | 0.00 | 0.00 | 0.00 | 35 | 1047.3 |
| 20260508144229 | 59 | 154 | 3.0 | 6.0 | 0.00 | 0.00 | 0.00 | 34 | 1047.2 |
| 20260508143727 | 58 | 204 | 5.0 | 8.0 | 0.00 | 0.00 | 0.00 | 35 | 1047.3 |
| 20260508143223 | 59 | 200 | 6.0 | 10.0 | 0.00 | 0.00 | 0.00 | 32 | 1047.5 |
| 20260508142714 | 58 | 240 | 4.0 | 9.0 | 0.00 | 0.00 | 0.00 | 35 | 1047.6 |
| 20260508142211 | 57 | 217 | 4.0 | 7.0 | 0.00 | 0.00 | 0.00 | 35 | 1047.6 |
| 20260508141708 | 57 | 112 | 4.0 | 9.0 | 0.00 | 0.00 | 0.00 | 34 | 1047.5 |
| 20260508141205 | 57 | 222 | 4.0 | 4.0 | 0.00 | 0.00 | 0.00 | 36 | 1047.5 |
| 20260508140703 | 57 | 180 | 1.0 | 4.0 | 0.00 | 0.00 | 0.00 | 39 | 1047.4 |
| 20260508140159 | 55 | 174 | 2.0 | 4.0 | 0.00 | 0.00 | 0.00 | 39 | 1047.5 |
| 20260508135656 | 55 | 257 | 6.0 | 9.0 | 0.00 | 0.00 | 0.00 | 38 | 1047.6 |
| 20260508135151 | 55 | 184 | 3.0 | 8.0 | 0.00 | 0.00 | 0.00 | 38 | 1047.5 |
| 20260508134647 | 54 | 180 | 4.0 | 8.0 | 0.00 | 0.00 | 0.00 | 40 | 1047.7 |
| 20260508134145 | 54 | 187 | 2.0 | 3.0 | 0.00 | 0.00 | 0.00 | 42 | 1047.7 |
| 20260508133642 | 53 | 199 | 0.0 | 2.0 | 0.00 | 0.00 | 0.00 | 41 | 1047.6 |
| 20260508133139 | 52 | 195 | 5.0 | 7.0 | 0.00 | 0.00 | 0.00 | 42 | 1047.7 |
| 20260508132637 | 51 | 204 | 1.0 | 4.0 | 0.00 | 0.00 | 0.00 | 44 | 1047.7 |
| 20260508132133 | 51 | 206 | 2.0 | 3.0 | 0.00 | 0.00 | 0.00 | 43 | 1047.7 |
| 20260508131629 | 50 | 230 | 2.0 | 2.0 | 0.00 | 0.00 | 0.00 | 44 | 1047.8 |
| 20260508131126 | 49 | 168 | 2.0 | 4.0 | 0.00 | 0.00 | 0.00 | 47 | 1047.9 |
| 20260508130622 | 48 | 212 | 3.0 | 7.0 | 0.00 | 0.00 | 0.00 | 47 | 1048.0 |
| 20260508130119 | 48 | 214 | 2.0 | 3.0 | 0.00 | 0.00 | 0.00 | 49 | 1047.8 |
| 20260508125614 | 47 | 168 | 3.0 | 3.0 | 0.00 | 0.00 | 0.00 | 49 | 1047.8 |
| 20260508125112 | 46 | 118 | 3.0 | 3.0 | 0.00 | 0.00 | 0.00 | 48 | 1047.9 |
| 20260508124610 | 46 | 178 | 1.0 | 2.0 | 0.00 | 0.00 | 0.00 | 48 | 1047.8 |
| 20260508124106 | 0 | 0.0 | 0.0 | 0.00 | 0.00 | 0.00 | 1047.7 | ||
| 20260508123605 | 0 | 0.0 | 0.0 | 0.00 | 0.00 | 0.00 | 1047.8 | ||
| 20260508123102 | 0 | 0.0 | 0.0 | 0.00 | 0.00 | 0.00 | 1047.7 | ||
| 20260508122558 | 0 | 0.0 | 0.0 | 0.00 | 0.00 | 0.00 | 1047.7 | ||
| 20260508122055 | 33 | 195 | 0.0 | 0.0 | 0.00 | 0.00 | 0.00 | 72 | 1047.7 |
| 20260508121553 | 33 | 195 | 0.0 | 0.0 | 0.00 | 0.00 | 0.00 | 72 | 1047.6 |
| 20260508121051 | 33 | 195 | 0.0 | 0.0 | 0.00 | 0.00 | 0.00 | 72 | 1047.7 |
| 20260508120548 | 33 | 195 | 0.0 | 0.0 | 0.00 | 0.00 | 0.00 | 72 | 1047.7 |
| 20260508120047 | 33 | 195 | 0.0 | 0.0 | 0.00 | 0.00 | 0.00 | 72 | 1047.7 |
| 20260508115543 | 33 | 195 | 0.0 | 0.0 | 0.00 | 0.00 | 0.00 | 72 | 1047.7 |
| 20260508115040 | 33 | 195 | 0.0 | 0.0 | 0.00 | 0.00 | 0.00 | 72 | 1047.7 |
| 20260508114537 | 33 | 195 | 0.0 | 0.0 | 0.00 | 0.00 | 0.00 | 72 | 1047.5 |
| 20260508114033 | 33 | 195 | 0.0 | 0.0 | 0.00 | 0.00 | 0.00 | 72 | 1047.5 |
| 20260508113531 | 33 | 195 | 0.0 | 0.0 | 0.00 | 0.00 | 0.00 | 72 | 1047.4 |
| 20260508113029 | 33 | 195 | 0.0 | 0.0 | 0.00 | 0.00 | 0.00 | 72 | 1047.5 |
| 20260508112525 | 33 | 195 | 0.0 | 0.0 | 0.00 | 0.00 | 0.00 | 72 | 1047.6 |
| 20260508112022 | 34 | 192 | 0.0 | 0.0 | 0.00 | 0.00 | 0.00 | 72 | 1047.5 |
| 20260508111519 | 0 | 0.0 | 0.0 | 0.00 | 0.00 | 0.00 | 1047.5 | ||
| 20260508111016 | 0 | 0.0 | 0.0 | 0.00 | 0.00 | 0.00 | 1047.5 | ||
| 20260508110514 | 0 | 0.0 | 0.0 | 0.00 | 0.00 | 0.00 | 1047.5 | ||
| 20260508110009 | 0 | 0.0 | 0.0 | 0.00 | 0.00 | 0.00 | 1047.6 | ||
| 20260508105504 | 0 | 0.0 | 0.0 | 0.00 | 0.00 | 0.00 | 1047.4 | ||
| 20260508105002 | 0 | 0.0 | 0.0 | 0.00 | 0.00 | 0.00 | 1047.4 | ||
| 20260508104500 | 0 | 0.0 | 0.0 | 0.00 | 0.00 | 0.00 | 1047.4 | ||
| 20260508103956 | 0 | 0.0 | 0.0 | 0.00 | 0.00 | 0.00 | 1047.5 | ||
| 20260508103453 | 0 | 0.0 | 0.0 | 0.00 | 0.00 | 0.00 | 1047.4 | ||
| 20260508102949 | 0 | 0.0 | 0.0 | 0.00 | 0.00 | 0.00 | 1047.7 | ||
| 20260508102448 | 0 | 0.0 | 0.0 | 0.00 | 0.00 | 0.00 | 1047.7 | ||
| 20260508101945 | 0 | 0.0 | 0.0 | 0.00 | 0.00 | 0.00 | 1047.9 | ||
| 20260508101442 | 0 | 0.0 | 0.0 | 0.00 | 0.00 | 0.00 | 1047.6 | ||
| 20260508100939 | 0 | 0.0 | 0.0 | 0.00 | 0.00 | 0.00 | 1047.5 | ||
| 20260508100438 | 0 | 0.0 | 0.0 | 0.00 | 0.00 | 0.00 | 1047.6 | ||
| 20260508095934 | 0 | 0.0 | 0.0 | 0.00 | 0.00 | 0.00 | 1047.6 | ||
| 20260508095432 | 0 | 0.0 | 0.0 | 0.00 | 0.00 | 0.00 | 1047.7 | ||
| 20260508094928 | 0 | 0.0 | 0.0 | 0.00 | 0.00 | 0.00 | 1047.5 | ||
| 20260508094425 | 0 | 0.0 | 0.0 | 0.00 | 0.00 | 0.00 | 1047.6 | ||
| 20260508093922 | 0 | 0.0 | 0.0 | 0.00 | 0.00 | 0.00 | 1047.6 | ||
| 20260508093419 | 0 | 0.0 | 0.0 | 0.00 | 0.00 | 0.00 | 1047.5 | ||
| 20260508092917 | 0 | 0.0 | 0.0 | 0.00 | 0.00 | 0.00 | 1047.6 | ||
| 20260508092415 | 0 | 0.0 | 0.0 | 0.00 | 0.00 | 0.00 | 1047.6 | ||
| 20260508091913 | 0 | 0.0 | 0.0 | 0.00 | 0.00 | 0.00 | 1047.6 | ||
| 20260508091409 | 0 | 0.0 | 0.0 | 0.00 | 0.00 | 0.00 | 1047.9 | ||
| 20260508090907 | 0 | 0.0 | 0.0 | 0.00 | 0.00 | 0.00 | 1047.7 | ||
| 20260508090405 | 0 | 0.0 | 0.0 | 0.00 | 0.00 | 0.00 | 1047.7 | ||
| 20260508085900 | 0 | 0.0 | 0.0 | 0.00 | 0.00 | 0.00 | 1047.9 | ||
| 20260508085357 | 0 | 0.0 | 0.0 | 0.00 | 0.00 | 0.00 | 1047.7 | ||
| 20260508084854 | 0 | 0.0 | 0.0 | 0.00 | 0.00 | 0.00 | 1047.8 | ||
| 20260508084351 | 0 | 0.0 | 0.0 | 0.00 | 0.00 | 0.00 | 1047.7 | ||
| 20260508083849 | 0 | 0.0 | 0.0 | 0.00 | 0.00 | 0.00 | 1047.8 | ||
| 20260508083346 | 0 | 0.0 | 0.0 | 0.00 | 0.00 | 0.00 | 1047.7 | ||
| 20260508082845 | 0 | 0.0 | 0.0 | 0.00 | 0.00 | 0.00 | 1047.9 | ||
| 20260508082343 | 0 | 0.0 | 0.0 | 0.00 | 0.00 | 0.00 | 1047.9 | ||
| 20260508081840 | 0 | 0.0 | 0.0 | 0.00 | 0.00 | 0.00 | 1047.8 | ||
| 20260508081337 | 0 | 0.0 | 0.0 | 0.00 | 0.00 | 0.00 | 1047.9 | ||
| 20260508080834 | 0 | 0.0 | 0.0 | 0.00 | 0.00 | 0.00 | 1047.8 | ||
| 20260508080332 | 0 | 0.0 | 0.0 | 0.00 | 0.00 | 0.00 | 1047.9 | ||
| 20260508075828 | 0 | 0.0 | 0.0 | 0.00 | 0.00 | 0.00 | 1048.1 | ||
| 20260508075325 | 0 | 0.0 | 0.0 | 0.00 | 0.00 | 0.00 | 1048.0 | ||
| 20260508074823 | 0 | 0.0 | 0.0 | 0.00 | 0.00 | 0.00 | 1048.2 | ||
| 20260508074320 | 0 | 0.0 | 0.0 | 0.00 | 0.00 | 0.00 | 1048.0 | ||
| 20260508073817 | 41 | 209 | 1.0 | 1.0 | 0.00 | 0.00 | 0.00 | 50 | 1048.1 |
| 20260508073315 | 41 | 209 | 1.0 | 1.0 | 0.00 | 0.00 | 0.00 | 50 | 1048.1 |
| 20260508072811 | 41 | 209 | 1.0 | 1.0 | 0.00 | 0.00 | 0.00 | 50 | 1048.2 |
| 20260508072308 | 41 | 209 | 1.0 | 1.0 | 0.00 | 0.00 | 0.00 | 50 | 1048.4 |
| 20260508071805 | 41 | 209 | 1.0 | 1.0 | 0.00 | 0.00 | 0.00 | 50 | 1048.4 |
| 20260508071304 | 41 | 209 | 1.0 | 1.0 | 0.00 | 0.00 | 0.00 | 50 | 1048.4 |
| 20260508070800 | 41 | 209 | 1.0 | 1.0 | 0.00 | 0.00 | 0.00 | 50 | 1048.4 |
| 20260508070259 | 41 | 209 | 1.0 | 1.0 | 0.00 | 0.00 | 0.00 | 50 | 1048.3 |
| 20260508065756 | 41 | 209 | 1.0 | 1.0 | 0.00 | 0.00 | 0.00 | 50 | 1048.2 |
| 20260508065254 | 41 | 209 | 1.0 | 1.0 | 0.00 | 0.00 | 0.00 | 50 | 1048.3 |
| 20260508064752 | 41 | 209 | 1.0 | 1.0 | 0.00 | 0.00 | 0.00 | 50 | 1048.4 |
| 20260508064249 | 41 | 209 | 1.0 | 1.0 | 0.00 | 0.00 | 0.00 | 50 | 1048.4 |
| 20260508063746 | 41 | 169 | 1.0 | 2.0 | 0.00 | 0.00 | 0.00 | 49 | 1048.5 |
| 20260508063245 | 41 | 169 | 1.0 | 2.0 | 0.00 | 0.00 | 0.00 | 49 | 1048.5 |
| 20260508062741 | 41 | 169 | 1.0 | 2.0 | 0.00 | 0.00 | 0.00 | 49 | 1048.6 |
| 20260508062239 | 38 | 224 | 0.0 | 1.0 | 0.00 | 0.00 | 0.00 | 68 | 1048.6 |
| 20260508061735 | 38 | 224 | 0.0 | 1.0 | 0.00 | 0.00 | 0.00 | 68 | 1048.5 |
| 20260508061233 | 38 | 224 | 0.0 | 1.0 | 0.00 | 0.00 | 0.00 | 68 | 1048.6 |
| 20260508060729 | 0 | 0.0 | 0.0 | 0.00 | 0.00 | 0.00 | 1048.6 | ||
| 20260508060227 | 0 | 0.0 | 0.0 | 0.00 | 0.00 | 0.00 | 1048.5 | ||
| 20260508055722 | 0 | 0.0 | 0.0 | 0.00 | 0.00 | 0.00 | 1048.4 | ||
| 20260508055220 | 0 | 0.0 | 0.0 | 0.00 | 0.00 | 0.00 | 1048.4 | ||
| 20260508054716 | 0 | 0.0 | 0.0 | 0.00 | 0.00 | 0.00 | 1048.7 | ||
| 20260508054214 | 0 | 0.0 | 0.0 | 0.00 | 0.00 | 0.00 | 1048.5 | ||
| 20260508053711 | 0 | 0.0 | 0.0 | 0.00 | 0.00 | 0.00 | 1048.4 | ||
| 20260508053208 | 0 | 0.0 | 0.0 | 0.00 | 0.00 | 0.00 | 1048.4 | ||
| 20260508052705 | 0 | 0.0 | 0.0 | 0.00 | 0.00 | 0.00 | 1048.5 | ||
| 20260508052202 | 0 | 0.0 | 0.0 | 0.00 | 0.00 | 0.00 | 1048.6 | ||
| 20260508051658 | 0 | 0.0 | 0.0 | 0.00 | 0.00 | 0.00 | 1048.5 | ||
| 20260508051154 | 0 | 0.0 | 0.0 | 0.00 | 0.00 | 0.00 | 1048.5 | ||
| 20260508050650 | 0 | 0.0 | 0.0 | 0.00 | 0.00 | 0.00 | 1048.6 | ||
| 20260508050148 | 0 | 0.0 | 0.0 | 0.00 | 0.00 | 0.00 | 1048.5 | ||
| 20260508045643 | 0 | 0.0 | 0.0 | 0.00 | 0.00 | 0.00 | 1048.5 | ||
| 20260508045142 | 0 | 0.0 | 0.0 | 0.00 | 0.00 | 0.00 | 1048.6 | ||
| 20260508044638 | 0 | 0.0 | 0.0 | 0.00 | 0.00 | 0.00 | 1048.7 | ||
| 20260508044134 | 0 | 0.0 | 0.0 | 0.00 | 0.00 | 0.00 | 1048.5 | ||
| 20260508043631 | 0 | 0.0 | 0.0 | 0.00 | 0.00 | 0.00 | 1048.7 | ||
| 20260508043129 | 0 | 0.0 | 0.0 | 0.00 | 0.00 | 0.00 | 1048.6 | ||
| 20260508042625 | 0 | 0.0 | 0.0 | 0.00 | 0.00 | 0.00 | 1048.6 | ||
| 20260508042123 | 0 | 0.0 | 0.0 | 0.00 | 0.00 | 0.00 | 1048.5 | ||
| 20260508041619 | 0 | 0.0 | 0.0 | 0.00 | 0.00 | 0.00 | 1048.5 | ||
| 20260508041116 | 0 | 0.0 | 0.0 | 0.00 | 0.00 | 0.00 | 1048.6 | ||
| 20260508040612 | 0 | 0.0 | 0.0 | 0.00 | 0.00 | 0.00 | 1048.5 | ||
| 20260508040110 | 0 | 0.0 | 0.0 | 0.00 | 0.00 | 0.00 | 1048.5 | ||
| 20260508035607 | 0 | 0.0 | 0.0 | 0.00 | 0.00 | 0.00 | 1048.5 | ||
| 20260508035104 | 0 | 0.0 | 0.0 | 0.00 | 0.00 | 0.00 | 1048.5 | ||
| 20260508034600 | 0 | 0.0 | 0.0 | 0.00 | 0.00 | 0.00 | 1048.6 | ||
| 20260508034058 | 44 | 183 | 0.0 | 0.0 | 0.00 | 0.00 | 0.00 | 48 | 1048.5 |
| 20260508033555 | 44 | 183 | 0.0 | 0.0 | 0.00 | 0.00 | 0.00 | 48 | 1048.3 |
| 20260508033054 | 44 | 183 | 0.0 | 0.0 | 0.00 | 0.00 | 0.00 | 48 | 1048.5 |
| 20260508032550 | 44 | 183 | 0.0 | 0.0 | 0.00 | 0.00 | 0.00 | 48 | 1048.5 |
| 20260508032048 | 44 | 183 | 0.0 | 0.0 | 0.00 | 0.00 | 0.00 | 48 | 1048.5 |
| 20260508031544 | 44 | 183 | 0.0 | 0.0 | 0.00 | 0.00 | 0.00 | 48 | 1048.5 |
| 20260508031040 | 44 | 183 | 0.0 | 0.0 | 0.00 | 0.00 | 0.00 | 48 | 1048.3 |
| 20260508030537 | 44 | 183 | 0.0 | 0.0 | 0.00 | 0.00 | 0.00 | 48 | 1048.5 |
| 20260508030035 | 44 | 183 | 0.0 | 0.0 | 0.00 | 0.00 | 0.00 | 48 | 1048.4 |
| 20260508025530 | 44 | 183 | 0.0 | 0.0 | 0.00 | 0.00 | 0.00 | 48 | 1048.2 |
| 20260508025028 | 44 | 183 | 0.0 | 0.0 | 0.00 | 0.00 | 0.00 | 48 | 1048.5 |
| 20260508024524 | 44 | 183 | 0.0 | 0.0 | 0.00 | 0.00 | 0.00 | 48 | 1048.4 |
| 20260508024021 | 48 | 177 | 0.0 | 0.0 | 0.00 | 0.00 | 0.00 | 45 | 1048.4 |
| 20260508023517 | 48 | 177 | 0.0 | 0.0 | 0.00 | 0.00 | 0.00 | 45 | 1048.4 |
| 20260508023015 | 48 | 177 | 0.0 | 0.0 | 0.00 | 0.00 | 0.00 | 45 | 1048.5 |
| 20260508022510 | 48 | 177 | 0.0 | 0.0 | 0.00 | 0.00 | 0.00 | 45 | 1048.3 |
| 20260508022007 | 48 | 177 | 0.0 | 0.0 | 0.00 | 0.00 | 0.00 | 45 | 1048.1 |
| 20260508021503 | 48 | 177 | 0.0 | 0.0 | 0.00 | 0.00 | 0.00 | 45 | 1048.1 |
| 20260508021000 | 48 | 177 | 0.0 | 0.0 | 0.00 | 0.00 | 0.00 | 45 | 1048.0 |
| 20260508020457 | 48 | 177 | 0.0 | 0.0 | 0.00 | 0.00 | 0.00 | 45 | 1047.9 |
| 20260508015954 | 0 | 0.0 | 0.0 | 0.00 | 0.00 | 0.00 | 1048.0 | ||
| 20260508015452 | 0 | 0.0 | 0.0 | 0.00 | 0.00 | 0.00 | 1047.9 | ||
| 20260508014949 | 0 | 0.0 | 0.0 | 0.00 | 0.00 | 0.00 | 1047.8 | ||
| 20260508014445 | 0 | 0.0 | 0.0 | 0.00 | 0.00 | 0.00 | 1047.7 | ||
| 20260508013942 | 0 | 0.0 | 0.0 | 0.00 | 0.00 | 0.00 | 1047.7 | ||
| 20260508013437 | 0 | 0.0 | 0.0 | 0.00 | 0.00 | 0.00 | 1047.7 | ||
| 20260508012935 | 0 | 0.0 | 0.0 | 0.00 | 0.00 | 0.00 | 1047.7 | ||
| 20260508012432 | 0 | 0.0 | 0.0 | 0.00 | 0.00 | 0.00 | 1047.7 | ||
| 20260508011929 | 0 | 0.0 | 0.0 | 0.00 | 0.00 | 0.00 | 1047.8 | ||
| 20260508011427 | 59 | 51 | 1.0 | 1.0 | 0.00 | 0.00 | 0.00 | 27 | 1047.5 |
| 20260508010924 | 59 | 51 | 1.0 | 1.0 | 0.00 | 0.00 | 0.00 | 27 | 1047.8 |
| 20260508010421 | 59 | 51 | 1.0 | 1.0 | 0.00 | 0.00 | 0.00 | 27 | 1047.7 |
| 20260508005918 | 59 | 51 | 1.0 | 1.0 | 0.00 | 0.00 | 0.00 | 27 | 1047.6 |
| 20260508005415 | 59 | 51 | 1.0 | 1.0 | 0.00 | 0.00 | 0.00 | 27 | 1047.5 |
| 20260508004911 | 59 | 51 | 1.0 | 1.0 | 0.00 | 0.00 | 0.00 | 27 | 1047.5 |
| 20260508004408 | 59 | 51 | 1.0 | 1.0 | 0.00 | 0.00 | 0.00 | 27 | 1047.5 |
| 20260508003904 | 59 | 51 | 1.0 | 1.0 | 0.00 | 0.00 | 0.00 | 27 | 1047.5 |
| 20260508003401 | 59 | 51 | 1.0 | 1.0 | 0.00 | 0.00 | 0.00 | 27 | 1047.4 |
| 20260508002858 | 59 | 51 | 1.0 | 1.0 | 0.00 | 0.00 | 0.00 | 27 | 1047.5 |
| 20260508002355 | 59 | 51 | 1.0 | 1.0 | 0.00 | 0.00 | 0.00 | 27 | 1047.4 |
| 20260508001851 | 59 | 51 | 1.0 | 1.0 | 0.00 | 0.00 | 0.00 | 27 | 1047.5 |
| 20260508001347 | 60 | 298 | 2.0 | 3.0 | 0.00 | 0.00 | 0.00 | 26 | 1047.4 |
| 20260508000844 | 60 | 298 | 2.0 | 3.0 | 0.00 | 0.00 | 0.00 | 26 | 1047.2 |
| 20260508000342 | 60 | 298 | 2.0 | 3.0 | 0.00 | 0.00 | 0.00 | 26 | 1047.5 |
| 20260507235837 | 60 | 298 | 2.0 | 3.0 | 0.00 | 0.00 | 0.00 | 26 | 1047.5 |
| 20260507235335 | 60 | 226 | 1.0 | 2.0 | 0.00 | 0.00 | 0.00 | 28 | 1047.5 |
| 20260507234831 | 60 | 226 | 1.0 | 2.0 | 0.00 | 0.00 | 0.00 | 28 | 1047.5 |
| 20260507234328 | 60 | 7 | 2.0 | 3.0 | 0.00 | 0.00 | 0.00 | 28 | 1047.4 |
| 20260507233824 | 60 | 273 | 2.0 | 2.0 | 0.00 | 0.00 | 0.00 | 29 | 1047.5 |
| 20260507233322 | 60 | 259 | 1.0 | 1.0 | 0.00 | 0.00 | 0.00 | 27 | 1047.5 |
| 20260507232820 | 60 | 293 | 4.0 | 7.0 | 0.00 | 0.00 | 0.00 | 26 | 1047.6 |
| 20260507232316 | 60 | 296 | 2.0 | 4.0 | 0.00 | 0.00 | 0.00 | 28 | 1047.6 |
| 20260507231813 | 60 | 328 | 2.0 | 3.0 | 0.00 | 0.00 | 0.00 | 27 | 1047.6 |
| 20260507231310 | 60 | 299 | 2.0 | 2.0 | 0.00 | 0.00 | 0.00 | 25 | 1047.5 |
| 20260507230806 | 60 | 283 | 4.0 | 9.0 | 0.00 | 0.00 | 0.00 | 28 | 1047.5 |
| 20260507230304 | 61 | 300 | 4.0 | 4.0 | 0.00 | 0.00 | 0.00 | 25 | 1047.7 |
| 20260507225803 | 62 | 306 | 2.0 | 4.0 | 0.00 | 0.00 | 0.00 | 28 | 1047.5 |
| 20260507225259 | 62 | 225 | 3.0 | 3.0 | 0.00 | 0.00 | 0.00 | 28 | 1047.6 |
| 20260507224755 | 61 | 290 | 4.0 | 4.0 | 0.00 | 0.00 | 0.00 | 28 | 1047.6 |
| 20260507224253 | 61 | 240 | 2.0 | 3.0 | 0.00 | 0.00 | 0.00 | 27 | 1047.4 |
| 20260507223748 | 61 | 253 | 6.0 | 9.0 | 0.00 | 0.00 | 0.00 | 25 | 1047.7 |
| 20260507223245 | 61 | 265 | 4.0 | 4.0 | 0.00 | 0.00 | 0.00 | 29 | 1047.7 |
| 20260507222742 | 61 | 267 | 7.0 | 14.0 | 0.00 | 0.00 | 0.00 | 26 | 1047.8 |
| 20260507222233 | 62 | 149 | 2.0 | 4.0 | 0.00 | 0.00 | 0.00 | 27 | 1047.6 |
| 20260507221730 | 61 | 262 | 2.0 | 6.0 | 0.00 | 0.00 | 0.00 | 25 | 1047.7 |
| 20260507221226 | 62 | 254 | 1.0 | 4.0 | 0.00 | 0.00 | 0.00 | 28 | 1047.7 |
| 20260507220723 | 62 | 271 | 3.0 | 6.0 | 0.00 | 0.00 | 0.00 | 26 | 1047.7 |
| 20260507220222 | 62 | 234 | 5.0 | 6.0 | 0.00 | 0.00 | 0.00 | 26 | 1047.6 |
| 20260507215717 | 62 | 218 | 4.0 | 6.0 | 0.00 | 0.00 | 0.00 | 25 | 1047.7 |
| 20260507215215 | 61 | 261 | 3.0 | 9.0 | 0.00 | 0.00 | 0.00 | 26 | 1047.7 |
| 20260507214712 | 61 | 357 | 3.0 | 4.0 | 0.00 | 0.00 | 0.00 | 26 | 1047.8 |
| 20260507214209 | 62 | 215 | 4.0 | 7.0 | 0.00 | 0.00 | 0.00 | 29 | 1047.6 |
| 20260507213704 | 61 | 95 | 1.0 | 7.0 | 0.00 | 0.00 | 0.00 | 29 | 1047.5 |
| 20260507213202 | 61 | 254 | 4.0 | 7.0 | 0.00 | 0.00 | 0.00 | 26 | 1047.8 |
| 20260507212658 | 61 | 200 | 1.0 | 6.0 | 0.00 | 0.00 | 0.00 | 30 | 1047.6 |
| 20260507212155 | 61 | 340 | 6.0 | 9.0 | 0.00 | 0.00 | 0.00 | 25 | 1047.8 |
| 20260507211652 | 62 | 33 | 3.0 | 4.0 | 0.00 | 0.00 | 0.00 | 28 | 1047.7 |